Time,TemperatureF,DewpointF,PressureIn,WindDirection,WindDirectionDegrees,WindSpeedMPH,WindSpeedGustMPH,Humidity,HourlyPrecipIn,Conditions,Clouds,dailyrainin,SoftwareType,DateUTC
2013-04-19 00:01:00,37.6,14.3,30.10,West,260,6.7,6.7,38,0.00,,CLR,0.00,VWS V14.01,2013-04-19 06:01:00,
2013-04-19 00:06:00,37.0,14.4,30.10,West,260,6.7,6.7,39,0.00,,BKN095,0.00,VWS V14.01,2013-04-19 06:06:00,
2013-04-19 00:11:00,34.0,12.8,30.10,West,260,6.7,6.7,41,0.00,,BKN095,0.00,VWS V14.01,2013-04-19 06:11:00,
2013-04-19 00:16:00,31.6,11.7,30.10,West,260,6.7,6.7,43,0.00,,BKN095,0.00,VWS V14.01,2013-04-19 06:16:00,
2013-04-19 00:21:00,31.1,11.8,30.10,West,260,6.7,6.7,44,0.00,,BKN095,0.00,VWS V14.01,2013-04-19 06:21:00,
2013-04-19 00:26:00,30.2,11.9,30.10,West,260,6.7,6.7,46,0.00,,BKN095,0.00,VWS V14.01,2013-04-19 06:26:00,
2013-04-19 00:31:00,29.5,12.2,30.10,West,260,6.7,6.7,48,0.00,,BKN095,0.00,VWS V14.01,2013-04-19 06:31:00,
2013-04-19 00:36:00,28.4,11.7,30.10,West,260,6.7,6.7,49,0.00,,BKN095,0.00,VWS V14.01,2013-04-19 06:36:00,
2013-04-19 00:41:00,28.2,11.5,30.10,West,260,6.7,6.7,49,0.00,,BKN095,0.00,VWS V14.01,2013-04-19 06:41:00,
2013-04-19 00:45:00,28.6,11.9,30.10,West,272,0.0,6.7,49,0.00,,BKN095,0.00,VWS V14.01,2013-04-19 06:45:00,
2013-04-19 00:50:00,28.4,11.7,30.10,West,272,0.0,6.7,49,0.00,,BKN095,0.00,VWS V14.01,2013-04-19 06:50:00,
2013-04-19 00:55:00,27.1,11.4,30.10,West,272,0.0,6.7,51,0.00,,BKN095,0.00,VWS V14.01,2013-04-19 06:55:00,
2013-04-19 01:00:00,26.4,11.6,30.10,West,272,0.0,6.7,53,0.00,,BKN095,0.00,VWS V14.01,2013-04-19 07:00:00,
2013-04-19 01:05:00,25.9,11.5,30.10,West,272,0.0,0.0,54,0.00,,BKN095,0.00,VWS V14.01,2013-04-19 07:05:00,
2013-04-19 01:10:00,26.6,13.0,30.10,West,272,0.0,0.0,56,0.00,,BKN095,0.00,VWS V14.01,2013-04-19 07:10:00,
2013-04-19 01:15:00,27.9,12.5,30.10,West,272,0.0,0.0,52,0.00,,BKN095,0.00,VWS V14.01,2013-04-19 07:15:00,
2013-04-19 01:20:00,27.0,11.7,30.10,West,272,0.0,0.0,52,0.00,,BKN095,0.00,VWS V14.01,2013-04-19 07:20:00,
2013-04-19 01:25:00,26.8,12.0,30.10,West,272,0.0,0.0,53,0.00,,BKN095,0.00,VWS V14.01,2013-04-19 07:25:00,
2013-04-19 01:30:00,27.9,12.5,30.10,West,272,0.0,0.0,52,0.00,,BKN095,0.00,VWS V14.01,2013-04-19 07:30:00,
2013-04-19 01:36:00,27.0,11.7,30.10,West,272,0.0,0.0,52,0.00,,BKN095,0.00,VWS V14.01,2013-04-19 07:36:00,
2013-04-19 01:40:00,26.1,11.7,30.10,West,272,0.0,0.0,54,0.00,,BKN095,0.00,VWS V14.01,2013-04-19 07:40:00,
2013-04-19 01:45:00,26.1,11.7,30.10,West,272,0.0,0.0,54,0.00,,BKN095,0.00,VWS V14.01,2013-04-19 07:45:00,
2013-04-19 01:50:00,25.7,11.4,30.10,West,272,0.0,0.0,54,0.00,,BKN095,0.00,VWS V14.01,2013-04-19 07:50:00,
2013-04-19 01:55:00,25.5,11.2,30.07,West,272,0.0,0.0,54,0.00,,BKN095,0.00,VWS V14.01,2013-04-19 07:55:00,
2013-04-19 02:00:00,25.0,11.1,30.07,West,272,0.0,0.0,55,0.00,,BKN095,0.00,VWS V14.01,2013-04-19 08:00:00,
2013-04-19 02:05:00,25.5,12.0,30.07,West,272,0.0,0.0,56,0.00,,CLR,0.00,VWS V14.01,2013-04-19 08:05:00,
2013-04-19 02:10:00,26.4,11.6,30.07,West,272,0.0,0.0,53,0.00,,CLR,0.00,VWS V14.01,2013-04-19 08:10:00,
2013-04-19 02:15:00,25.7,11.4,30.07,West,272,0.0,0.0,54,0.00,,CLR,0.00,VWS V14.01,2013-04-19 08:15:00,
2013-04-19 02:20:00,25.5,11.2,30.07,West,272,0.0,0.0,54,0.00,,CLR,0.00,VWS V14.01,2013-04-19 08:20:00,
2013-04-19 02:25:00,26.6,12.2,30.07,West,272,0.0,0.0,54,0.00,,CLR,0.00,VWS V14.01,2013-04-19 08:25:00,
2013-04-19 02:30:00,26.2,11.9,30.07,West,272,0.0,0.0,54,0.00,,CLR,0.00,VWS V14.01,2013-04-19 08:30:00,
2013-04-19 02:35:00,26.2,11.9,30.07,West,272,0.0,0.0,54,0.00,,CLR,0.00,VWS V14.01,2013-04-19 08:35:00,
2013-04-19 02:40:00,27.1,11.9,30.07,West,272,0.0,0.0,52,0.00,,CLR,0.00,VWS V14.01,2013-04-19 08:40:00,
2013-04-19 02:45:00,27.0,11.7,30.07,West,272,0.0,0.0,52,0.00,,CLR,0.00,VWS V14.01,2013-04-19 08:45:00,
2013-04-19 02:50:00,26.1,11.7,30.07,West,272,0.0,0.0,54,0.00,,CLR,0.00,VWS V14.01,2013-04-19 08:50:00,
2013-04-19 02:55:00,25.7,11.4,30.07,West,272,0.0,0.0,54,0.00,,CLR,0.00,VWS V14.01,2013-04-19 08:55:00,
2013-04-19 03:00:00,26.6,12.2,30.07,West,272,0.0,0.0,54,0.00,,CLR,0.00,VWS V14.01,2013-04-19 09:00:00,
2013-04-19 03:05:00,26.2,11.9,30.07,West,272,0.0,0.0,54,0.00,,CLR,0.00,VWS V14.01,2013-04-19 09:05:00,
2013-04-19 03:10:00,25.5,11.2,30.07,West,272,0.0,0.0,54,0.00,,CLR,0.00,VWS V14.01,2013-04-19 09:10:00,
2013-04-19 03:15:00,26.4,11.6,30.07,West,272,0.0,0.0,53,0.00,,CLR,0.00,VWS V14.01,2013-04-19 09:15:00,
2013-04-19 03:20:00,26.4,11.6,30.07,West,272,0.0,0.0,53,0.00,,CLR,0.00,VWS V14.01,2013-04-19 09:20:00,
2013-04-19 03:25:00,26.8,11.5,30.07,West,272,0.0,0.0,52,0.00,,CLR,0.00,VWS V14.01,2013-04-19 09:25:00,
2013-04-19 03:30:00,26.1,11.7,30.07,West,272,0.0,0.0,54,0.00,,CLR,0.00,VWS V14.01,2013-04-19 09:30:00,
2013-04-19 03:35:00,26.6,11.4,30.07,West,272,0.0,0.0,52,0.00,,CLR,0.00,VWS V14.01,2013-04-19 09:35:00,
2013-04-19 03:40:00,27.0,12.1,30.04,West,272,0.0,0.0,53,0.00,,CLR,0.00,VWS V14.01,2013-04-19 09:40:00,
2013-04-19 03:45:00,26.8,11.5,30.04,West,272,0.0,0.0,52,0.00,,CLR,0.00,VWS V14.01,2013-04-19 09:45:00,
2013-04-19 03:50:00,27.9,11.6,30.04,West,272,0.0,0.0,50,0.00,,CLR,0.00,VWS V14.01,2013-04-19 09:50:00,
2013-04-19 03:55:00,27.5,11.3,30.04,West,272,0.0,0.0,50,0.00,,CLR,0.00,VWS V14.01,2013-04-19 09:55:00,
2013-04-19 04:00:00,27.0,12.1,30.04,West,272,0.0,0.0,53,0.00,,CLR,0.00,VWS V14.01,2013-04-19 10:00:00,
2013-04-19 04:05:00,26.4,12.0,30.04,West,272,0.0,0.0,54,0.00,,CLR,0.00,VWS V14.01,2013-04-19 10:05:00,
2013-04-19 04:10:00,27.1,11.9,30.04,West,272,0.0,0.0,52,0.00,,CLR,0.00,VWS V14.01,2013-04-19 10:10:00,
2013-04-19 04:15:00,27.5,12.2,30.04,West,272,0.0,0.0,52,0.00,,CLR,0.00,VWS V14.01,2013-04-19 10:15:00,
2013-04-19 04:20:00,27.5,12.6,30.04,West,272,0.0,0.0,53,0.00,,CLR,0.00,VWS V14.01,2013-04-19 10:20:00,
2013-04-19 04:25:00,27.3,12.0,30.04,West,272,0.0,0.0,52,0.00,,CLR,0.00,VWS V14.01,2013-04-19 10:25:00,
2013-04-19 04:30:00,27.1,12.7,30.04,West,262,5.4,5.4,54,0.00,,CLR,0.00,VWS V14.01,2013-04-19 10:30:00,
2013-04-19 04:35:00,27.1,13.1,30.04,West,262,5.4,5.4,55,0.00,,CLR,0.00,VWS V14.01,2013-04-19 10:35:00,
2013-04-19 04:40:00,27.0,13.0,30.04,West,262,5.4,5.4,55,0.00,,CLR,0.00,VWS V14.01,2013-04-19 10:40:00,
2013-04-19 04:45:00,27.1,12.7,30.04,West,262,5.4,5.4,54,0.00,,CLR,0.00,VWS V14.01,2013-04-19 10:45:00,
2013-04-19 04:50:00,26.8,12.4,30.04,West,262,5.4,5.4,54,0.00,,CLR,0.00,VWS V14.01,2013-04-19 10:50:00,
2013-04-19 04:55:00,27.3,12.5,30.04,West,262,5.4,5.4,53,0.00,,CLR,0.00,VWS V14.01,2013-04-19 10:55:00,
2013-04-19 05:00:00,26.6,12.2,30.04,West,262,5.4,5.4,54,0.00,,CLR,0.00,VWS V14.01,2013-04-19 11:00:00,
2013-04-19 05:05:00,26.1,12.1,30.04,West,262,5.4,5.4,55,0.00,,SCT110,0.00,VWS V14.01,2013-04-19 11:05:00,
2013-04-19 05:10:00,25.3,12.2,30.04,West,262,5.4,5.4,57,0.00,,SCT110,0.00,VWS V14.01,2013-04-19 11:10:00,
2013-04-19 05:15:00,24.4,12.6,30.04,West,262,5.4,5.4,60,0.00,,SCT110,0.00,VWS V14.01,2013-04-19 11:15:00,
2013-04-19 05:20:00,23.5,12.8,30.04,West,262,5.4,5.4,63,0.00,,SCT110,0.00,VWS V14.01,2013-04-19 11:20:00,
2013-04-19 05:25:00,23.2,13.2,30.04,West,262,5.4,5.4,65,0.00,,SCT110,0.00,VWS V14.01,2013-04-19 11:25:00,
2013-04-19 05:30:00,23.4,13.7,30.04,West,262,5.4,5.4,66,0.00,,SCT110,0.00,VWS V14.01,2013-04-19 11:30:00,
2013-04-19 05:35:00,23.2,12.8,30.04,West,262,5.4,5.4,64,0.00,,SCT110,0.00,VWS V14.01,2013-04-19 11:35:00,
2013-04-19 05:40:00,22.5,12.8,30.04,West,262,5.4,5.4,66,0.00,,SCT110,0.00,VWS V14.01,2013-04-19 11:40:00,
2013-04-19 05:45:00,22.8,13.2,30.04,West,262,5.4,5.4,66,0.00,,SCT110,0.00,VWS V14.01,2013-04-19 11:45:00,
2013-04-19 05:50:00,22.8,12.8,30.04,West,262,5.4,5.4,65,0.00,,SCT110,0.00,VWS V14.01,2013-04-19 11:50:00,
2013-04-19 05:55:00,23.0,12.6,30.04,West,262,5.4,5.4,64,0.00,,SCT110,0.00,VWS V14.01,2013-04-19 11:55:00,
2013-04-19 06:00:00,22.8,12.5,30.04,West,262,5.4,5.4,64,0.00,,SCT110,0.00,VWS V14.01,2013-04-19 12:00:00,
2013-04-19 06:05:00,22.8,12.8,30.04,West,262,5.4,5.4,65,0.00,,SCT110,0.00,VWS V14.01,2013-04-19 12:05:00,
2013-04-19 06:10:00,23.2,12.8,30.04,West,262,5.4,5.4,64,0.00,,SCT110,0.00,VWS V14.01,2013-04-19 12:10:00,
2013-04-19 06:15:00,23.2,12.5,30.04,West,262,5.4,5.4,63,0.00,,SCT110,0.00,VWS V14.01,2013-04-19 12:15:00,
2013-04-19 06:20:00,22.8,12.8,30.04,West,262,5.4,5.4,65,0.00,,SCT110,0.00,VWS V14.01,2013-04-19 12:20:00,
2013-04-19 06:25:00,22.5,12.5,30.04,West,262,5.4,5.4,65,0.00,,SCT110,0.00,VWS V14.01,2013-04-19 12:25:00,
2013-04-19 06:30:00,22.1,12.1,30.04,West,262,5.4,5.4,65,0.00,,SCT110,0.00,VWS V14.01,2013-04-19 12:30:00,
2013-04-19 06:35:00,23.2,13.5,30.04,West,262,5.4,5.4,66,0.00,,SCT110,0.00,VWS V14.01,2013-04-19 12:35:00,
2013-04-19 06:40:00,24.4,14.4,30.04,West,262,5.4,5.4,65,0.00,,SCT110,0.00,VWS V14.01,2013-04-19 12:40:00,
2013-04-19 06:45:00,25.3,14.5,30.04,West,262,5.4,5.4,63,0.00,,SCT110,0.00,VWS V14.01,2013-04-19 12:45:00,
2013-04-19 06:50:00,26.1,13.3,30.04,West,262,5.4,5.4,58,0.00,,SCT110,0.00,VWS V14.01,2013-04-19 12:50:00,
2013-04-19 06:55:00,27.1,13.1,30.04,SSW,200,6.3,6.3,55,0.00,,SCT110,0.00,VWS V14.01,2013-04-19 12:55:00,
2013-04-19 07:00:00,28.0,13.1,30.04,SSW,200,6.3,6.3,53,0.00,,SCT110,0.00,VWS V14.01,2013-04-19 13:00:00,
2013-04-19 07:05:00,27.9,12.5,30.04,SSW,200,6.3,6.3,52,0.00,,CLR,0.00,VWS V14.01,2013-04-19 13:05:00,
2013-04-19 07:10:00,29.1,13.3,30.04,SSW,200,6.3,6.3,51,0.00,,CLR,0.00,VWS V14.01,2013-04-19 13:10:00,
2013-04-19 07:15:00,28.9,12.6,30.04,SSW,200,6.3,6.3,50,0.00,,CLR,0.00,VWS V14.01,2013-04-19 13:15:00,
2013-04-19 07:20:00,29.3,13.0,30.04,SSW,200,6.3,6.3,50,0.00,,CLR,0.00,VWS V14.01,2013-04-19 13:20:00,
2013-04-19 07:25:00,29.5,12.7,30.04,SSW,200,6.3,6.3,49,0.00,,CLR,0.00,VWS V14.01,2013-04-19 13:25:00,
2013-04-19 07:30:00,30.7,14.3,30.04,SSW,200,6.3,6.3,50,0.00,,CLR,0.00,VWS V14.01,2013-04-19 13:30:00,
2013-04-19 07:35:00,31.6,14.2,30.04,SSW,200,6.3,6.3,48,0.00,,CLR,0.00,VWS V14.01,2013-04-19 13:35:00,
2013-04-19 07:40:00,32.2,13.7,30.01,SSW,200,6.3,6.3,46,0.00,,CLR,0.00,VWS V14.01,2013-04-19 13:40:00,
2013-04-19 07:45:00,34.7,15.6,30.01,SSW,200,6.3,6.3,45,0.00,,CLR,0.00,VWS V14.01,2013-04-19 13:45:00,
2013-04-19 07:50:00,39.2,18.6,30.01,SSW,204,3.6,6.3,43,0.00,,CLR,0.00,VWS V14.01,2013-04-19 13:50:00,
2013-04-19 07:55:00,43.2,19.9,30.01,SSW,202,3.1,6.3,39,0.00,,CLR,0.00,VWS V14.01,2013-04-19 13:55:00,
2013-04-19 08:00:00,45.7,21.5,30.01,SSE,152,4.9,6.3,38,0.00,,CLR,0.00,VWS V14.01,2013-04-19 14:00:00,
2013-04-19 08:05:00,47.3,22.4,30.01,SSE,157,4.0,5.4,37,0.00,,CLR,0.00,VWS V14.01,2013-04-19 14:05:00,
2013-04-19 08:10:00,42.8,19.0,30.01,SSE,156,4.0,8.1,38,0.00,,CLR,0.00,VWS V14.01,2013-04-19 14:10:00,
2013-04-19 08:15:00,37.4,15.3,30.01,SE,124,4.9,8.1,40,0.00,,CLR,0.00,VWS V14.01,2013-04-19 14:15:00,
2013-04-19 08:20:00,34.9,15.2,30.01,ESE,119,4.0,8.1,44,0.00,,CLR,0.00,VWS V14.01,2013-04-19 14:20:00,
2013-04-19 08:25:00,34.7,16.0,30.01,ESE,119,4.0,8.1,46,0.00,,CLR,0.00,VWS V14.01,2013-04-19 14:25:00,
2013-04-19 08:30:00,34.5,15.9,30.01,SSE,161,4.0,8.1,46,0.00,,CLR,0.00,VWS V14.01,2013-04-19 14:30:00,
2013-04-19 08:35:00,35.1,16.4,30.01,SSE,161,4.0,4.0,46,0.00,,CLR,0.00,VWS V14.01,2013-04-19 14:35:00,
2013-04-19 08:40:00,35.6,16.9,30.01,SSE,161,4.0,4.0,46,0.00,,CLR,0.00,VWS V14.01,2013-04-19 14:40:00,
2013-04-19 08:45:00,34.0,15.4,30.01,SSE,161,4.0,4.0,46,0.00,,CLR,0.00,VWS V14.01,2013-04-19 14:45:00,
2013-04-19 08:50:00,36.7,17.9,30.01,SSE,161,4.0,4.0,46,0.00,,CLR,0.00,VWS V14.01,2013-04-19 14:50:00,
2013-04-19 08:55:00,37.9,18.0,30.01,SE,130,4.9,4.9,44,0.00,,CLR,0.00,VWS V14.01,2013-04-19 14:55:00,
2013-04-19 09:00:00,41.7,20.3,30.01,SE,145,3.1,6.7,42,0.00,,CLR,0.00,VWS V14.01,2013-04-19 15:00:00,
2013-04-19 09:05:00,40.3,17.9,30.01,SE,125,5.8,8.3,40,0.00,,OVC100,0.00,VWS V14.01,2013-04-19 15:05:00,
2013-04-19 09:10:00,36.3,15.4,30.01,SE,128,5.4,8.3,42,0.00,,OVC100,0.00,VWS V14.01,2013-04-19 15:10:00,
2013-04-19 09:15:00,35.4,16.2,30.01,ESE,122,5.8,10.1,45,0.00,,OVC100,0.00,VWS V14.01,2013-04-19 15:15:00,
2013-04-19 09:20:00,41.0,19.7,30.01,SE,145,4.9,10.1,42,0.00,,OVC100,0.00,VWS V14.01,2013-04-19 15:20:00,
2013-04-19 09:25:00,41.4,18.9,30.01,ESE,119,5.8,10.1,40,0.00,,OVC100,0.00,VWS V14.01,2013-04-19 15:25:00,
2013-04-19 09:30:00,43.2,19.9,30.01,ESE,119,5.8,10.1,39,0.00,,OVC100,0.00,VWS V14.01,2013-04-19 15:30:00,
2013-04-19 09:35:00,40.5,18.1,30.01,ESE,119,5.8,5.8,40,0.00,,OVC100,0.00,VWS V14.01,2013-04-19 15:35:00,
2013-04-19 09:40:00,41.5,18.4,30.01,East,84,4.9,5.8,39,0.00,,OVC100,0.00,VWS V14.01,2013-04-19 15:40:00,
2013-04-19 09:45:00,42.1,18.9,30.01,East,83,5.4,5.8,39,0.00,,OVC100,0.00,VWS V14.01,2013-04-19 15:45:00,
2013-04-19 09:50:00,40.8,17.8,30.01,ESE,117,5.4,7.2,39,0.00,,OVC100,0.00,VWS V14.01,2013-04-19 15:50:00,
2013-04-19 09:55:00,43.5,20.2,30.01,SE,137,6.3,8.1,39,0.00,,OVC100,0.00,VWS V14.01,2013-04-19 15:55:00,
2013-04-19 10:00:00,43.0,19.1,30.01,East,89,5.4,8.1,38,0.00,,OVC100,0.00,VWS V14.01,2013-04-19 16:00:00,
2013-04-19 10:05:00,44.6,20.6,30.01,East,87,4.0,5.4,38,0.00,,OVC090,0.00,VWS V14.01,2013-04-19 16:05:00,
2013-04-19 10:10:00,48.0,22.4,30.01,ESE,119,2.7,5.4,36,0.00,,OVC090,0.00,VWS V14.01,2013-04-19 16:10:00,
2013-04-19 10:15:00,47.7,22.0,30.01,ESE,115,5.4,5.8,36,0.00,,OVC090,0.00,VWS V14.01,2013-04-19 16:15:00,
2013-04-19 10:20:00,44.2,20.3,30.01,SE,140,3.1,5.8,38,0.00,,OVC090,0.00,VWS V14.01,2013-04-19 16:20:00,
2013-04-19 10:25:00,44.8,20.1,30.01,SE,131,3.6,6.3,37,0.00,,OVC090,0.00,VWS V14.01,2013-04-19 16:25:00,
2013-04-19 10:30:00,43.0,19.1,30.01,ESE,122,3.6,6.3,38,0.00,,OVC090,0.00,VWS V14.01,2013-04-19 16:30:00,
2013-04-19 10:35:00,45.0,20.9,30.01,SSE,153,8.7,8.7,38,0.00,,OVC090,0.00,VWS V14.01,2013-04-19 16:35:00,
2013-04-19 10:40:00,44.2,19.0,30.01,ESE,114,5.8,8.7,36,0.00,,OVC090,0.00,VWS V14.01,2013-04-19 16:40:00,
2013-04-19 10:45:00,44.2,18.3,30.01,East,88,2.7,8.7,35,0.00,,OVC090,0.00,VWS V14.01,2013-04-19 16:45:00,
2013-04-19 10:50:00,42.1,18.3,30.01,East,87,4.9,8.7,38,0.00,,OVC090,0.00,VWS V14.01,2013-04-19 16:50:00,
2013-04-19 10:55:00,42.6,19.4,29.98,ESE,113,5.8,8.7,39,0.00,,OVC090,0.00,VWS V14.01,2013-04-19 16:55:00,
2013-04-19 11:00:00,42.1,18.3,29.98,ESE,103,5.8,8.7,38,0.00,,OVC090,0.00,VWS V14.01,2013-04-19 17:00:00,
2013-04-19 11:05:00,42.8,19.0,29.98,ENE,68,5.8,6.3,38,0.00,,CLR,0.00,VWS V14.01,2013-04-19 17:05:00,
2013-04-19 11:10:00,44.2,20.3,29.98,SE,128,4.0,6.3,38,0.00,,CLR,0.00,VWS V14.01,2013-04-19 17:10:00,
2013-04-19 11:15:00,41.7,18.0,29.98,East,89,2.7,6.3,38,0.00,,CLR,0.00,VWS V14.01,2013-04-19 17:15:00,
2013-04-19 11:20:00,43.9,19.9,29.98,NE,52,0.0,6.3,38,0.00,,CLR,0.00,VWS V14.01,2013-04-19 17:20:00,
2013-04-19 11:25:00,43.7,19.8,29.98,East,100,5.4,6.3,38,0.00,,CLR,0.00,VWS V14.01,2013-04-19 17:25:00,
2013-04-19 11:30:00,42.8,19.0,29.98,ENE,78,5.4,9.6,38,0.00,,CLR,0.00,VWS V14.01,2013-04-19 17:30:00,
2013-04-19 11:35:00,41.2,18.1,29.98,East,88,3.6,6.3,39,0.00,,CLR,0.00,VWS V14.01,2013-04-19 17:35:00,
2013-04-19 11:40:00,43.5,19.6,29.98,SSE,150,4.9,6.3,38,0.00,,CLR,0.00,VWS V14.01,2013-04-19 17:40:00,
2013-04-19 11:45:00,42.3,18.5,29.98,ESE,103,2.7,6.3,38,0.00,,CLR,0.00,VWS V14.01,2013-04-19 17:45:00,
2013-04-19 11:50:00,42.6,18.8,29.98,NE,37,4.9,6.3,38,0.00,,CLR,0.00,VWS V14.01,2013-04-19 17:50:00,
2013-04-19 11:55:00,42.8,19.0,29.98,East,84,3.6,6.3,38,0.00,,CLR,0.00,VWS V14.01,2013-04-19 17:55:00,
2013-04-19 12:00:00,42.6,18.8,29.98,East,89,2.7,6.3,38,0.00,,CLR,0.00,VWS V14.01,2013-04-19 18:00:00,
2013-04-19 12:05:00,43.3,19.5,29.98,ESE,109,3.6,6.3,38,0.00,,BKN080,0.00,VWS V14.01,2013-04-19 18:05:00,
2013-04-19 12:10:00,44.4,20.4,29.98,East,86,3.6,6.3,38,0.00,,BKN080,0.00,VWS V14.01,2013-04-19 18:10:00,
2013-04-19 12:15:00,48.2,21.9,29.98,SSW,193,2.7,6.7,35,0.00,,BKN080,0.00,VWS V14.01,2013-04-19 18:15:00,
2013-04-19 12:20:00,45.3,19.3,29.98,ESE,106,3.6,6.7,35,0.00,,BKN080,0.00,VWS V14.01,2013-04-19 18:20:00,
2013-04-19 12:25:00,48.6,21.5,29.98,NE,41,0.0,6.7,34,0.00,,BKN080,0.00,VWS V14.01,2013-04-19 18:25:00,
2013-04-19 12:30:00,50.0,22.8,29.98,SE,127,2.7,6.7,34,0.00,,BKN080,0.00,VWS V14.01,2013-04-19 18:30:00,
2013-04-19 12:35:00,48.0,20.3,29.98,ENE,67,4.9,4.9,33,0.00,,BKN080,0.00,VWS V14.01,2013-04-19 18:35:00,
2013-04-19 12:40:00,44.6,18.7,29.98,ESE,103,2.7,5.8,35,0.00,,BKN080,0.00,VWS V14.01,2013-04-19 18:40:00,
2013-04-19 12:45:00,45.9,19.8,29.98,East,90,2.7,6.3,35,0.00,,BKN080,0.00,VWS V14.01,2013-04-19 18:45:00,
2013-04-19 12:50:00,46.8,19.9,29.98,East,81,5.4,6.3,34,0.00,,BKN080,0.00,VWS V14.01,2013-04-19 18:50:00,
2013-04-19 12:55:00,46.9,20.0,29.95,ESE,112,3.6,6.3,34,0.00,,BKN080,0.00,VWS V14.01,2013-04-19 18:55:00,
2013-04-19 13:00:00,46.6,20.4,29.95,North,0,5.4,6.3,35,0.00,,BKN080,0.00,VWS V14.01,2013-04-19 19:00:00,
2013-04-19 13:05:00,49.8,21.2,29.95,NNE,25,8.7,10.5,32,0.00,,BKN110,0.00,VWS V14.01,2013-04-19 19:05:00,
2013-04-19 13:10:00,51.3,22.4,29.95,North,3,2.7,10.5,32,0.00,,BKN110,0.00,VWS V14.01,2013-04-19 19:10:00,
2013-04-19 13:15:00,52.3,21.8,29.95,NW,326,5.8,10.5,30,0.00,,BKN110,0.00,VWS V14.01,2013-04-19 19:15:00,
2013-04-19 13:20:00,51.8,21.4,29.95,WNW,291,0.0,10.5,30,0.00,,BKN110,0.00,VWS V14.01,2013-04-19 19:20:00,
2013-04-19 13:25:00,48.2,19.0,29.95,ENE,73,2.7,10.5,31,0.00,,BKN110,0.00,VWS V14.01,2013-04-19 19:25:00,
2013-04-19 13:30:00,49.5,20.9,29.95,NE,45,4.0,10.5,32,0.00,,BKN110,0.00,VWS V14.01,2013-04-19 19:30:00,
2013-04-19 13:35:00,50.4,20.9,29.95,East,95,4.0,4.9,31,0.00,,BKN110,0.00,VWS V14.01,2013-04-19 19:35:00,
2013-04-19 13:40:00,50.7,22.0,29.95,North,1,4.0,6.3,32,0.00,,BKN110,0.00,VWS V14.01,2013-04-19 19:40:00,
2013-04-19 13:45:00,50.5,21.0,29.95,NE,45,5.8,6.3,31,0.00,,BKN110,0.00,VWS V14.01,2013-04-19 19:45:00,
2013-04-19 13:50:00,51.4,21.8,29.95,NE,34,4.5,8.3,31,0.00,,BKN110,0.00,VWS V14.01,2013-04-19 19:50:00,
2013-04-19 13:55:00,49.6,21.0,29.95,NNW,345,4.9,8.3,32,0.00,,BKN110,0.00,VWS V14.01,2013-04-19 19:55:00,
2013-04-19 14:00:00,50.4,21.6,29.95,NE,53,3.1,9.2,32,0.00,,BKN110,0.00,VWS V14.01,2013-04-19 20:00:00,
2013-04-19 14:05:00,48.9,21.1,29.95,North,350,0.0,7.6,33,0.00,,BKN110,0.00,VWS V14.01,2013-04-19 20:05:00,
2013-04-19 14:10:00,49.5,21.6,29.95,NW,320,4.0,7.6,33,0.00,,BKN110,0.00,VWS V14.01,2013-04-19 20:10:00,
2013-04-19 14:15:00,49.6,21.7,29.95,NE,52,0.0,7.6,33,0.00,,BKN110,0.00,VWS V14.01,2013-04-19 20:15:00,
2013-04-19 14:20:00,49.8,21.9,29.95,NE,52,0.0,7.6,33,0.00,,BKN110,0.00,VWS V14.01,2013-04-19 20:20:00,
2013-04-19 14:25:00,47.3,20.4,29.95,ESE,113,4.0,7.6,34,0.00,,BKN110,0.00,VWS V14.01,2013-04-19 20:25:00,
2013-04-19 14:30:00,50.4,22.4,29.95,North,11,3.1,7.6,33,0.00,,BKN110,0.00,VWS V14.01,2013-04-19 20:30:00,
2013-04-19 14:35:00,50.4,21.6,29.95,NW,323,2.7,4.0,32,0.00,,BKN110,0.00,VWS V14.01,2013-04-19 20:35:00,
2013-04-19 14:40:00,48.2,21.2,29.95,ENE,76,3.1,4.5,34,0.00,,BKN110,0.00,VWS V14.01,2013-04-19 20:40:00,
2013-04-19 14:45:00,47.5,20.5,29.95,ESE,110,3.1,6.3,34,0.00,,BKN110,0.00,VWS V14.01,2013-04-19 20:45:00,
2013-04-19 14:50:00,49.5,22.3,29.95,ESE,115,0.0,6.3,34,0.00,,BKN110,0.00,VWS V14.01,2013-04-19 20:50:00,
2013-04-19 14:55:00,49.8,21.9,29.92,NE,40,2.2,6.3,33,0.00,,BKN110,0.00,VWS V14.01,2013-04-19 20:55:00,
2013-04-19 15:00:00,46.8,19.9,29.92,ESE,113,4.0,6.3,34,0.00,,BKN110,0.00,VWS V14.01,2013-04-19 21:00:00,
2013-04-19 15:05:00,48.4,22.0,29.92,ENE,71,2.2,4.9,35,0.00,,CLR,0.00,VWS V14.01,2013-04-19 21:05:00,
2013-04-19 15:10:00,50.5,22.5,29.92,WSW,247,2.7,4.9,33,0.00,,CLR,0.00,VWS V14.01,2013-04-19 21:10:00,
2013-04-19 15:15:00,51.8,23.6,29.92,WSW,241,0.0,4.9,33,0.00,,CLR,0.00,VWS V14.01,2013-04-19 21:15:00,
2013-04-19 15:20:00,51.8,23.6,29.92,SSE,147,5.4,5.4,33,0.00,,CLR,0.00,VWS V14.01,2013-04-19 21:20:00,
2013-04-19 15:25:00,49.8,22.6,29.92,SE,124,5.4,8.1,34,0.00,,CLR,0.00,VWS V14.01,2013-04-19 21:25:00,
2013-04-19 15:30:00,50.2,22.9,29.92,SE,134,8.1,8.7,34,0.00,,CLR,0.00,VWS V14.01,2013-04-19 21:30:00,
2013-04-19 15:35:00,51.6,23.5,29.92,SSE,157,4.9,8.7,33,0.00,,CLR,0.00,VWS V14.01,2013-04-19 21:35:00,
2013-04-19 15:40:00,52.2,23.2,29.92,SE,136,7.6,8.7,32,0.00,,CLR,0.00,VWS V14.01,2013-04-19 21:40:00,
2013-04-19 15:45:00,48.9,21.8,29.92,SE,129,5.8,10.1,34,0.00,,CLR,0.00,VWS V14.01,2013-04-19 21:45:00,
2013-04-19 15:49:00,48.6,22.2,29.92,SSE,147,5.8,10.1,35,0.00,,CLR,0.00,VWS V14.01,2013-04-19 21:49:00,
2013-04-19 15:54:00,46.8,21.2,29.92,ESE,112,8.7,10.1,36,0.00,,CLR,0.00,VWS V14.01,2013-04-19 21:54:00,
2013-04-19 15:59:00,47.3,22.4,29.92,SE,133,5.8,10.1,37,0.00,,CLR,0.00,VWS V14.01,2013-04-19 21:59:00,
2013-04-19 16:04:00,47.3,22.4,29.92,SE,127,6.3,8.7,37,0.00,,FEW120,0.00,VWS V14.01,2013-04-19 22:04:00,
2013-04-19 16:09:00,47.5,22.5,29.92,SE,127,5.4,11.0,37,0.00,,FEW120,0.00,VWS V14.01,2013-04-19 22:09:00,
2013-04-19 16:14:00,46.8,21.9,29.92,SE,135,8.3,11.0,37,0.00,,FEW120,0.00,VWS V14.01,2013-04-19 22:14:00,
2013-04-19 16:19:00,46.0,21.2,29.92,ESE,110,6.3,11.0,37,0.00,,FEW120,0.00,VWS V14.01,2013-04-19 22:19:00,
2013-04-19 16:24:00,46.6,21.7,29.89,ESE,120,6.7,11.0,37,0.00,,FEW120,0.00,VWS V14.01,2013-04-19 22:24:00,
2013-04-19 16:29:00,46.6,21.7,29.89,SSE,167,8.3,11.0,37,0.00,,FEW120,0.00,VWS V14.01,2013-04-19 22:29:00,
2013-04-19 16:34:00,45.9,21.7,29.89,SE,133,5.8,8.3,38,0.00,,FEW120,0.00,VWS V14.01,2013-04-19 22:34:00,
2013-04-19 16:39:00,45.3,21.2,29.92,SE,125,4.9,8.3,38,0.00,,FEW120,0.00,VWS V14.01,2013-04-19 22:39:00,
2013-04-19 16:44:00,45.0,20.9,29.92,ESE,122,3.6,8.3,38,0.00,,FEW120,0.00,VWS V14.01,2013-04-19 22:44:00,
2013-04-19 16:49:00,45.1,21.1,29.92,ESE,105,3.6,8.3,38,0.00,,FEW120,0.00,VWS V14.01,2013-04-19 22:49:00,
2013-04-19 16:54:00,45.7,21.5,29.89,SE,143,4.0,8.3,38,0.00,,FEW120,0.00,VWS V14.01,2013-04-19 22:54:00,
2013-04-19 16:59:00,45.7,21.5,29.89,SE,140,2.2,8.3,38,0.00,,FEW120,0.00,VWS V14.01,2013-04-19 22:59:00,
2013-04-19 17:04:00,45.3,21.2,29.89,ESE,115,5.4,7.6,38,0.00,,BKN085,0.00,VWS V14.01,2013-04-19 23:04:00,
2013-04-19 17:09:00,44.8,20.7,29.89,ESE,119,5.8,7.6,38,0.00,,BKN085,0.00,VWS V14.01,2013-04-19 23:09:00,
2013-04-19 17:14:00,44.8,20.7,29.89,ESE,108,10.5,10.5,38,0.00,,BKN085,0.00,VWS V14.01,2013-04-19 23:14:00,
2013-04-19 17:19:00,45.1,21.1,29.89,SE,145,10.1,12.8,38,0.00,,BKN085,0.00,VWS V14.01,2013-04-19 23:19:00,
2013-04-19 17:24:00,44.6,20.6,29.89,ESE,114,8.3,12.8,38,0.00,,BKN085,0.00,VWS V14.01,2013-04-19 23:24:00,
2013-04-19 17:29:00,45.1,21.1,29.89,SSE,154,5.4,12.8,38,0.00,,BKN085,0.00,VWS V14.01,2013-04-19 23:29:00,
2013-04-19 17:34:00,44.8,20.7,29.89,SE,144,5.4,10.5,38,0.00,,BKN085,0.00,VWS V14.01,2013-04-19 23:34:00,
2013-04-19 17:39:00,44.6,21.2,29.89,SE,139,7.6,10.5,39,0.00,,BKN085,0.00,VWS V14.01,2013-04-19 23:39:00,
2013-04-19 17:44:00,44.1,21.3,29.89,SE,139,7.6,10.5,40,0.00,,BKN085,0.00,VWS V14.01,2013-04-19 23:44:00,
2013-04-19 17:49:00,43.5,21.4,29.89,SE,139,7.6,10.5,41,0.00,,BKN085,0.00,VWS V14.01,2013-04-19 23:49:00,
2013-04-19 17:54:00,43.7,21.6,29.89,SE,139,7.6,10.5,41,0.00,,BKN085,0.00,VWS V14.01,2013-04-19 23:54:00,
2013-04-19 17:59:00,43.5,22.0,29.89,East,96,4.9,10.5,42,0.00,,BKN085,0.00,VWS V14.01,2013-04-19 23:59:00,
2013-04-19 18:04:00,43.2,22.2,29.89,ESE,103,5.8,5.8,43,0.00,,OVC120,0.00,VWS V14.01,2013-04-20 00:04:00,
2013-04-19 18:09:00,43.0,22.0,29.89,SE,126,7.2,8.1,43,0.00,,OVC120,0.00,VWS V14.01,2013-04-20 00:09:00,
2013-04-19 18:14:00,42.4,22.1,29.89,East,100,5.8,8.1,44,0.00,,OVC120,0.00,VWS V14.01,2013-04-20 00:14:00,
2013-04-19 18:19:00,42.3,22.5,29.89,ESE,114,6.3,8.7,45,0.00,,OVC120,0.00,VWS V14.01,2013-04-20 00:19:00,
2013-04-19 18:24:00,42.3,23.0,29.89,ESE,117,5.8,9.2,46,0.00,,OVC120,0.00,VWS V14.01,2013-04-20 00:24:00,
2013-04-19 18:29:00,41.5,23.3,29.89,ESE,113,5.8,9.2,48,0.00,,OVC120,0.00,VWS V14.01,2013-04-20 00:29:00,
2013-04-19 18:34:00,41.7,22.5,29.89,ESE,113,5.8,5.8,46,0.00,,OVC120,0.00,VWS V14.01,2013-04-20 00:34:00,
2013-04-19 18:39:00,41.9,22.6,29.89,ESE,116,10.1,10.1,46,0.00,,OVC120,0.00,VWS V14.01,2013-04-20 00:39:00,
2013-04-19 18:44:00,41.7,23.0,29.89,East,92,3.1,10.1,47,0.00,,OVC120,0.00,VWS V14.01,2013-04-20 00:44:00,
2013-04-19 18:49:00,41.7,23.0,29.89,East,100,0.0,10.1,47,0.00,,OVC120,0.00,VWS V14.01,2013-04-20 00:49:00,
2013-04-19 18:54:00,41.9,23.2,29.89,SE,128,5.8,10.1,47,0.00,,OVC120,0.00,VWS V14.01,2013-04-20 00:54:00,
2013-04-19 18:59:00,41.2,24.0,29.89,East,89,4.0,10.1,50,0.00,,OVC120,0.00,VWS V14.01,2013-04-20 00:59:00,
2013-04-19 19:04:00,41.0,24.3,29.89,East,101,4.0,4.9,51,0.00,,SCT120,0.00,VWS V14.01,2013-04-20 01:04:00,
2013-04-19 19:09:00,41.0,24.3,29.89,ESE,110,4.5,6.3,51,0.00,,SCT120,0.00,VWS V14.01,2013-04-20 01:09:00,
2013-04-19 19:14:00,40.6,24.4,29.89,NE,56,5.4,6.3,52,0.00,,SCT120,0.00,VWS V14.01,2013-04-20 01:14:00,
2013-04-19 19:19:00,40.5,24.7,29.89,ENE,69,4.0,6.3,53,0.00,,SCT120,0.00,VWS V14.01,2013-04-20 01:19:00,
2013-04-19 19:24:00,40.5,24.7,29.89,ENE,63,2.7,6.3,53,0.00,,SCT120,0.00,VWS V14.01,2013-04-20 01:24:00,
2013-04-19 19:29:00,40.1,24.4,29.89,ENE,63,0.0,6.3,53,0.00,,SCT120,0.00,VWS V14.01,2013-04-20 01:29:00,
2013-04-19 19:34:00,39.9,24.2,29.89,ENE,63,2.2,2.7,53,0.00,,SCT120,0.00,VWS V14.01,2013-04-20 01:34:00,
2013-04-19 19:39:00,39.7,24.0,29.89,ENE,63,0.0,2.7,53,0.00,,SCT120,0.00,VWS V14.01,2013-04-20 01:39:00,
2013-04-19 19:44:00,39.4,24.6,29.89,North,353,3.6,4.0,55,0.00,,SCT120,0.00,VWS V14.01,2013-04-20 01:44:00,
2013-04-19 19:49:00,38.8,25.8,29.89,WNW,293,3.1,4.0,59,0.00,,SCT120,0.00,VWS V14.01,2013-04-20 01:49:00,
2013-04-19 19:54:00,38.3,25.6,29.89,WNW,292,0.0,4.0,60,0.00,,SCT120,0.00,VWS V14.01,2013-04-20 01:54:00,
2013-04-19 19:59:00,38.3,24.8,29.89,WNW,292,0.0,4.0,58,0.00,,SCT120,0.00,VWS V14.01,2013-04-20 01:59:00,
2013-04-19 20:04:00,38.8,25.3,29.89,WNW,293,0.0,0.0,58,0.00,,BKN110,0.00,VWS V14.01,2013-04-20 02:04:00,
2013-04-19 20:09:00,38.5,25.0,29.89,SSW,207,3.6,3.6,58,0.00,,BKN110,0.00,VWS V14.01,2013-04-20 02:09:00,
2013-04-19 20:14:00,38.7,25.6,29.89,SSE,162,4.9,4.9,59,0.00,,BKN110,0.00,VWS V14.01,2013-04-20 02:14:00,
2013-04-19 20:19:00,38.1,25.5,29.89,SSW,213,5.4,5.8,60,0.00,,BKN110,0.00,VWS V14.01,2013-04-20 02:19:00,
2013-04-19 20:24:00,37.9,25.7,29.89,South,191,5.4,7.6,61,0.00,,BKN110,0.00,VWS V14.01,2013-04-20 02:24:00,
2013-04-19 20:29:00,37.6,25.4,29.89,SW,236,4.0,7.6,61,0.00,,BKN110,0.00,VWS V14.01,2013-04-20 02:29:00,
2013-04-19 20:34:00,37.4,26.0,29.89,WSW,258,4.0,4.0,63,0.00,,BKN110,0.00,VWS V14.01,2013-04-20 02:34:00,
2013-04-19 20:39:00,37.4,26.0,29.89,WSW,240,3.1,7.2,63,0.00,,BKN110,0.00,VWS V14.01,2013-04-20 02:39:00,
2013-04-19 20:44:00,37.0,26.4,29.89,SSE,147,4.0,7.2,65,0.00,,BKN110,0.00,VWS V14.01,2013-04-20 02:44:00,
2013-04-19 20:49:00,37.0,26.0,29.89,SSE,167,3.1,7.2,64,0.00,,BKN110,0.00,VWS V14.01,2013-04-20 02:49:00,
2013-04-19 20:54:00,39.0,23.8,29.89,SSE,167,3.1,7.2,54,0.00,,BKN110,0.00,VWS V14.01,2013-04-20 02:54:00,
2013-04-19 20:59:00,39.0,24.2,29.89,SSE,167,3.1,7.2,55,0.00,,BKN110,0.00,VWS V14.01,2013-04-20 02:59:00,
2013-04-19 21:04:00,38.3,23.6,29.89,SSE,167,3.1,3.1,55,0.00,,SCT120,0.00,VWS V14.01,2013-04-20 03:04:00,
2013-04-19 21:09:00,38.1,23.8,29.89,SSE,167,3.1,3.1,56,0.00,,SCT120,0.00,VWS V14.01,2013-04-20 03:09:00,
2013-04-19 21:14:00,37.0,25.2,29.89,SW,231,5.8,5.8,62,0.00,,SCT120,0.00,VWS V14.01,2013-04-20 03:14:00,
2013-04-19 21:19:00,36.0,26.4,29.89,WSW,258,2.7,5.8,68,0.00,,SCT120,0.00,VWS V14.01,2013-04-20 03:19:00,
2013-04-19 21:24:00,34.9,26.8,29.89,WSW,251,5.4,5.8,72,0.00,,SCT120,0.00,VWS V14.01,2013-04-20 03:24:00,
2013-04-19 21:29:00,34.9,27.1,29.89,SW,236,5.8,6.3,73,0.00,,SCT120,0.00,VWS V14.01,2013-04-20 03:29:00,
2013-04-19 21:34:00,35.1,27.3,29.89,WSW,238,5.4,6.3,73,0.00,,SCT120,0.00,VWS V14.01,2013-04-20 03:34:00,
2013-04-19 21:39:00,35.2,27.1,29.89,WSW,240,5.8,6.3,72,0.00,,SCT120,0.00,VWS V14.01,2013-04-20 03:39:00,
2013-04-19 21:44:00,35.4,26.6,29.89,WSW,242,5.4,6.3,70,0.00,,SCT120,0.00,VWS V14.01,2013-04-20 03:44:00,
2013-04-19 21:49:00,35.6,26.1,29.89,WSW,242,5.4,6.3,68,0.00,,SCT120,0.00,VWS V14.01,2013-04-20 03:49:00,
2013-04-19 21:54:00,35.8,26.3,29.89,WSW,242,5.4,6.3,68,0.00,,SCT120,0.00,VWS V14.01,2013-04-20 03:54:00,
2013-04-19 21:59:00,35.4,26.3,29.89,WSW,242,5.4,6.3,69,0.00,,SCT120,0.00,VWS V14.01,2013-04-20 03:59:00,
2013-04-19 22:01:00,35.4,26.6,29.89,WSW,242,5.4,6.3,70,0.00,,SCT120,0.00,VWS V14.01,2013-04-20 04:01:00,
2013-04-19 22:06:00,35.6,25.7,29.89,WSW,242,5.4,5.4,67,0.00,,CLR,0.00,VWS V14.01,2013-04-20 04:06:00,
2013-04-19 22:11:00,35.8,25.5,29.89,WSW,242,5.4,5.4,66,0.00,,CLR,0.00,VWS V14.01,2013-04-20 04:11:00,
2013-04-19 22:16:00,36.1,25.5,29.89,WSW,242,5.4,5.4,65,0.00,,CLR,0.00,VWS V14.01,2013-04-20 04:16:00,
2013-04-19 22:21:00,36.3,25.3,29.89,WSW,242,5.4,5.4,64,0.00,,CLR,0.00,VWS V14.01,2013-04-20 04:21:00,
2013-04-19 22:26:00,36.9,24.3,29.89,WSW,242,5.4,5.4,60,0.00,,CLR,0.00,VWS V14.01,2013-04-20 04:26:00,
2013-04-19 22:31:00,37.0,24.9,29.89,WSW,242,5.4,5.4,61,0.00,,CLR,0.00,VWS V14.01,2013-04-20 04:31:00,
2013-04-19 22:36:00,36.9,25.8,29.89,WSW,242,5.4,5.4,64,0.00,,CLR,0.00,VWS V14.01,2013-04-20 04:36:00,
2013-04-19 22:41:00,37.0,24.1,29.92,WSW,242,5.4,5.4,59,0.00,,CLR,0.00,VWS V14.01,2013-04-20 04:41:00,
2013-04-19 22:46:00,37.6,23.3,29.92,WSW,242,5.4,5.4,56,0.00,,CLR,0.00,VWS V14.01,2013-04-20 04:46:00,
2013-04-19 22:51:00,38.8,23.2,29.92,WSW,242,5.4,5.4,53,0.00,,CLR,0.00,VWS V14.01,2013-04-20 04:51:00,
2013-04-19 22:56:00,38.7,23.0,29.92,WSW,242,5.4,5.4,53,0.00,,CLR,0.00,VWS V14.01,2013-04-20 04:56:00,
2013-04-19 23:01:00,37.6,22.5,29.92,WSW,242,5.4,5.4,54,0.00,,CLR,0.00,VWS V14.01,2013-04-20 05:01:00,
2013-04-19 23:06:00,36.3,22.6,29.92,WSW,242,5.4,5.4,57,0.00,,CLR,0.00,VWS V14.01,2013-04-20 05:06:00,
2013-04-19 23:11:00,34.9,22.8,29.89,WSW,242,5.4,5.4,61,0.00,,CLR,0.00,VWS V14.01,2013-04-20 05:11:00,
2013-04-19 23:16:00,33.8,25.1,29.89,WSW,242,5.4,5.4,70,0.00,,CLR,0.00,VWS V14.01,2013-04-20 05:16:00,
2013-04-19 23:21:00,33.8,25.4,29.89,WSW,242,5.4,5.4,71,0.00,,CLR,0.00,VWS V14.01,2013-04-20 05:21:00,
2013-04-19 23:26:00,34.0,25.6,29.92,WSW,242,5.4,5.4,71,0.00,,CLR,0.00,VWS V14.01,2013-04-20 05:26:00,
2013-04-19 23:31:00,34.0,25.6,29.92,WSW,242,5.4,5.4,71,0.00,,CLR,0.00,VWS V14.01,2013-04-20 05:31:00,
2013-04-19 23:36:00,33.6,25.2,29.92,WSW,242,5.4,5.4,71,0.00,,CLR,0.00,VWS V14.01,2013-04-20 05:36:00,
2013-04-19 23:41:00,33.6,25.6,29.89,WSW,242,5.4,5.4,72,0.00,,CLR,0.00,VWS V14.01,2013-04-20 05:41:00,
2013-04-19 23:46:00,32.9,25.2,29.89,WSW,242,5.4,5.4,73,0.00,,CLR,0.00,VWS V14.01,2013-04-20 05:46:00,
2013-04-19 23:51:00,32.2,25.2,29.89,WSW,242,5.4,5.4,75,0.00,,CLR,0.00,VWS V14.01,2013-04-20 05:51:00,
2013-04-19 23:56:00,32.2,25.5,29.92,WSW,242,5.4,5.4,76,0.00,,CLR,0.00,VWS V14.01,2013-04-20 05:56:00,